Ras Al Khaimah, UAE

6:44 AM GST on August 29, 2016 (GMT +0400)
Ras Al Khaimah International

Weather History for OMRK - December, 2012

Change the Weather History Date:

Wednesday, December 5, 2012

  Actual Average Record
Temperature  
Mean Temperature 74 °F -  
Max Temperature 85 °F 78 °F 88 °F (2015)
Min Temperature 63 °F 56 °F 42 °F (1996)
Cooling Degree Days 9    
Growing Degree Days 24 (Base 50)    
Moisture  
Dew Point 60 °F    
Average Humidity 61    
Maximum Humidity 83    
Minimum Humidity 34    
Precipitation  
Precipitation 0.00 in 0.02 in - ()
Sea Level Pressure  
Sea Level Pressure 29.96 in    
Wind  
Wind Speed 4 mph ()    
Max Wind Speed 10 mph    
Max Gust Speed -    
Visibility 6.1 miles    
Events Rain    
Averages and records for this station are not official NWS values.
T = Trace of Precipitation, MM = Missing Value Source: Averaged Metar Reports

Daily Weather History Graph

Daily Weather History Graph

Search for Another Location

Airport or City:

Trip Planner

Search our weather history database for the weather conditions in past years. The results will help you decide how hot, cold, wet, or windy it might be!

Date:

Astronomy

Dec. 05, 2012 Rise Set
Actual Time 6:48 AM GST 5:25 PM GST
Civil Twilight 6:23 AM GST 5:50 PM GST
Nautical Twilight 5:54 AM GST 6:18 PM GST
Astronomical Twilight 5:26 AM GST 6:46 PM GST
Moon 11:22 PM GST (12/5) 11:23 AM GST (12/5)
Length of Visible Light 11h 26m
Length of Day
10h 37m
Waning Gibbous, 63% of the Moon is Illuminated
Dec 5
Waning Gibbous
Dec 6
Last Quarter
Dec 13
New
Dec 20
First Quarter
Dec 28
Full

Hourly Weather History & Observations

Time (GST) Temp. Heat Index Dew Point Humidity Pressure Visibility Wind Dir Wind Speed Gust Speed Precip Events Conditions
12:00 AM 71.6 °F - 57.2 °F 60% 29.95 in 6.2 mi ESE 6.9 mph - N/A   Partly Cloudy
1:00 AM 71 °F - 58 °F 54% 29.94 in 6 mi SSE 6.9 mph - -   Scattered Clouds
1:00 AM 71.6 °F - 57.2 °F 60% 29.92 in 6.2 mi SSE 6.9 mph - N/A   Partly Cloudy
2:00 AM 66.2 °F - 59.0 °F 78% 29.92 in 6.2 mi East 4.6 mph - N/A   Partly Cloudy
3:00 AM 68.0 °F - 59.0 °F 73% 29.95 in 6.2 mi WNW 3.5 mph - N/A   Partly Cloudy
4:00 AM 67 °F - 58 °F 65% 29.94 in 6 mi NE 2.3 mph - -   Scattered Clouds
4:00 AM 66.2 °F - 57.2 °F 73% 29.92 in 6.2 mi NE 2.3 mph - N/A   Partly Cloudy
5:00 AM 64.4 °F - 59.0 °F 83% 29.92 in 6.2 mi WNW 2.3 mph - N/A   Partly Cloudy
6:00 AM 64.4 °F - 57.2 °F 77% 29.95 in 6.2 mi ESE 3.5 mph - N/A   Partly Cloudy
7:00 AM 64.4 °F - 57.2 °F 77% 29.95 in - South 4.6 mph - N/A   Clear
8:00 AM 68.0 °F - 59.0 °F 73% 29.98 in 6.2 mi Calm Calm - N/A   Partly Cloudy
9:00 AM 71.6 °F - 59.0 °F 64% 30.01 in 6.2 mi East 2.3 mph - N/A   Partly Cloudy
10:00 AM 76 °F - 59 °F 46% 30.02 in 6 mi NNE 3.5 mph - -   Scattered Clouds
10:00 AM 77.0 °F - 59.0 °F 54% 30.01 in 6.2 mi NNE 3.5 mph - N/A   Partly Cloudy
11:00 AM 80.6 °F 80.8 °F 57.2 °F 45% 30.01 in - NW 2.3 mph - N/A   Clear
12:00 PM 82.4 °F 82.0 °F 57.2 °F 42% 29.98 in 6.2 mi SSW 6.9 mph - N/A   Partly Cloudy
1:00 PM 82 °F - 58 °F 34% 29.96 in 6 mi South 4.6 mph - -   Partly Cloudy
1:00 PM 82.4 °F 82.5 °F 59.0 °F 45% 29.95 in 6.2 mi South 4.6 mph - N/A   Partly Cloudy
2:00 PM 84.2 °F 83.5 °F 57.2 °F 40% 29.92 in 6.2 mi South 5.8 mph - N/A   Scattered Clouds
3:00 PM 82.4 °F 82.0 °F 57.2 °F 42% 29.92 in 6.2 mi East 2.3 mph - N/A   Partly Cloudy
4:00 PM 80 °F - 60 °F 41% 29.91 in 6 mi NNW 6.9 mph - -   Partly Cloudy
4:00 PM 80.6 °F 81.5 °F 60.8 °F 51% 29.92 in 6.2 mi NNW 6.9 mph - N/A   Scattered Clouds
5:00 PM 77.0 °F - 62.6 °F 61% 29.92 in 6.2 mi North 10.4 mph - N/A Rain Light Rain
7:00 PM 75 °F - 68 °F 74% 29.97 in 6 mi SW 4.6 mph - -   Partly Cloudy
7:00 PM 73.4 °F - 68.0 °F 83% 29.98 in 6.2 mi WSW 4.6 mph - N/A   Partly Cloudy
9:00 PM 73.4 °F - 66.2 °F 78% 29.98 in 6.2 mi South 4.6 mph - N/A   Partly Cloudy
10:00 PM 74 °F - 63 °F 61% 29.99 in 6 mi ESE 4.6 mph - -   Scattered Clouds
10:00 PM 73.4 °F - 62.6 °F 69% 29.98 in 6.2 mi ESE 4.6 mph - N/A   Partly Cloudy
11:00 PM 71.6 °F - 64.4 °F 78% 29.98 in 6.2 mi NE 1.2 mph - N/A   Partly Cloudy